CST,Max TemperatureF,Mean TemperatureF,Min TemperatureF,Max Dew PointF,MeanDew PointF,Min DewpointF,Max Humidity, Mean Humidity, Min Humidity, Max Sea Level PressureIn, Mean Sea Level PressureIn, Min Sea Level PressureIn, Max VisibilityMiles, Mean VisibilityMiles, Min VisibilityMiles, Max Wind SpeedMPH, Mean Wind SpeedMPH, Max Gust SpeedMPH,PrecipitationIn, CloudCover, Events, WindDirDegrees
2013-2-1,1,-8,-16,-4,-15,-22,78,66,50,30.25,30.17,30.06,10,8,2,10,5,9,0.00,3,Snow,253
2013-2-2,8,2,-5,1,-5,-9,85,71,52,30.14,30.06,29.95,10,8,1,7,2,,0.00,5,Snow,353
2013-2-3,14,8,3,3,1,0,85,71,53,30.00,29.97,29.92,10,9,1,13,5,17,0.00,5,Snow,279
2013-2-4,12,2,-9,3,-4,-15,85,65,45,30.04,29.95,29.79,10,10,2,9,4,,0.00,3,Snow,279
2013-2-5,23,9,-5,21,9,-9,93,79,58,30.06,29.83,29.64,10,9,0,13,7,17,0.00,5,Snow,262
2013-2-6,24,8,-9,21,5,-15,93,83,77,30.12,30.05,29.98,10,8,0,9,2,,0.00,6,Snow,110
2013-2-7,26,24,23,23,21,18,100,86,74,30.25,30.10,30.03,10,7,2,17,9,20,0.00,8,,20
2013-2-8,23,10,-4,16,8,-8,93,76,62,30.38,30.31,30.25,10,10,5,10,3,,0.00,2,Snow,101
2013-2-9,28,20,12,25,19,5,93,82,67,30.28,30.10,29.97,10,8,4,14,9,22,0.00,7,,137
2013-2-10,33,30,26,32,28,23,100,92,80,29.98,29.58,29.25,7,4,0,17,9,25,0.23,8,Rain-Snow,90
2013-2-11,32,28,21,32,24,16,100,84,69,29.98,29.65,29.25,10,8,1,17,10,28,0.02,8,Snow,287
2013-2-12,32,23,14,23,17,10,93,79,64,30.00,29.89,29.76,10,10,4,13,7,17,0.00,4,Snow,207
2013-2-13,33,26,19,30,23,18,100,86,69,29.76,29.67,29.59,10,8,1,7,2,,0.01,7,Snow,177
2013-2-14,32,22,10,30,17,1,100,72,47,30.11,29.84,29.59,10,9,2,16,7,22,0.00,5,Snow,328
2013-2-15,17,11,5,3,1,0,79,64,45,30.23,30.19,30.11,10,10,10,12,5,17,0.00,4,,288
2013-2-16,15,3,-11,1,-3,-15,92,73,49,30.19,30.16,30.13,10,10,5,6,1,,0.00,3,,298
2013-2-17,26,6,-14,14,1,-20,85,70,55,30.13,29.96,29.73,10,10,10,17,6,23,0.00,1,,127
2013-2-18,33,24,15,28,21,10,93,80,68,29.72,29.58,29.49,10,9,2,17,11,26,0.00,6,Snow,204
2013-2-19,14,8,1,9,-4,-9,79,61,48,30.27,29.97,29.67,10,9,4,20,14,28,0.00,3,Snow,312
2013-2-20,19,10,1,7,0,-8,79,68,53,30.41,30.38,30.27,10,10,10,10,6,,0.00,3,,338
2013-2-21,26,10,-7,16,4,-11,85,72,51,30.47,30.33,30.11,10,10,10,10,3,,0.00,0,,25
2013-2-22,28,24,19,23,20,16,100,86,74,30.11,29.90,29.83,10,5,0,14,8,17,0.05,8,Snow,25
2013-2-23,32,26,21,23,22,19,100,85,69,29.92,29.83,29.79,10,8,2,8,3,,0.00,8,Snow,256
2013-2-24,33,22,12,23,20,10,93,79,60,30.10,30.03,29.92,10,8,2,8,3,,0.00,6,,256
2013-2-25,32,20,8,25,19,5,100,84,69,30.11,30.08,30.04,10,6,0,7,1,,0.00,7,Fog,96
2013-2-26,37,26,14,28,22,10,100,79,56,30.08,29.95,29.86,10,7,1,17,8,23,0.00,5,,19
2013-2-27,32,31,30,27,25,23,86,78,69,29.98,29.88,29.83,10,10,10,22,15,29,0.00,8,,3
2013-2-28,32,28,23,25,19,14,80,72,68,30.22,30.12,29.98,10,10,10,20,15,26,0.00,8,,15